[[{"header":{"parameterUnit":"m.s-1","parameterCategory":1,"la1":30.2991,"la2":30.254,"lo1":-89.0895,"lo2":-89.0444,"dy":0.0017,"dx":0.0017,"nx":28,"ny":28,"refTime":"2024-08-04T21:00:00:Z","depth":0,"parameterNumber":2,"parameterNumberName":"U-component_of_WINDS"},"data":[0,0,0,0,0,0,0,0,0,0,0,0,0,0,0,0,0,0,0,0,0,0,0,0,0,0,0,0,0,0,0,0,0,0,0,0,0,0,0,0,0,0,0,0,0,0,0,0,0,0,0,0,0,0,0,0,0,0,-0.415,-0.4152,0,-0.4344,-0.4346,-0.4348,-0.4379,-0.4377,-0.4376,-0.4374,-0.4579,-0.4586,-0.4593,0,0,0,0,0,0,0,0,0,0,0,0,0,-0.3815,-0.3821,-0.415,-0.4153,-0.4155,-0.4343,-0.4346,-0.4349,-0.4379,-0.4377,-0.4375,-0.4373,-0.4577,-0.4585,-0.4594,0,0,0,0,0,0,0,0,0,0,0,0,0,-0.398,-0.3823,-0.415,-0.4193,-0.4199,-0.4343,-0.4346,-0.4349,-0.438,-0.4377,-0.4375,-0.4372,-0.4574,-0.4584,-0.4595,-0.4712,0,0,-0.4627,-0.4632,0,0,0,0,0,0,0,0,-0.3971,-0.3992,-0.4184,-0.419,-0.4197,-0.4334,-0.4303,-0.4471,-0.438,-0.4311,-0.4374,-0.4371,-0.45,-0.4517,-0.4559,-0.4721,-0.473,-0.4628,-0.4634,-0.4639,-0.4642,0,0,0,0,0,0,0,-0.3959,-0.3984,-0.4227,-0.4187,-0.4195,-0.4205,-0.4226,-0.4335,-0.4418,-0.4317,-0.432,-0.4342,-0.4503,-0.4549,-0.4564,-0.4733,-0.4628,-0.4637,-0.4644,-0.4648,-0.5004,-0.5007,0,0,0,0,0,0,-0.3939,-0.3974,-0.4221,-0.4233,-0.4075,-0.4213,-0.4236,-0.4293,-0.4417,-0.4433,-0.4344,-0.4343,-0.4532,-0.4552,-0.4571,-0.4719,-0.4639,-0.4649,-0.4655,-0.5001,-0.5005,-0.5009,0,0,0,0,0,0,-0.3932,-0.3961,-0.4213,-0.4104,-0.4137,-0.4222,-0.4285,-0.4298,-0.4343,-0.4437,-0.4453,-0.4374,-0.4531,-0.4556,-0.4677,-0.4726,-0.4654,-0.4663,-0.4998,-0.5003,-0.5007,-0.5013,0,0,0,0,0,0,-0.3922,-0.3958,-0.4001,-0.4105,-0.4143,-0.4313,-0.4288,-0.4304,-0.4361,-0.4361,-0.447,-0.4486,-0.453,-0.4661,-0.4687,-0.474,-0.4672,-0.4994,-0.5,-0.5005,-0.5009,-0.5018,-0.5025,0,0,0,0,0,-0.391,-0.3996,-0.4003,-0.4033,-0.4199,-0.4316,-0.4338,-0.4386,-0.4364,-0.4411,-0.4471,-0.4482,-0.4716,-0.4673,-0.4703,-0.4759,-0.4991,-0.4998,-0.5005,-0.5006,-0.5016,-0.5025,0,0,0,0,0,0,-0.3899,-0.4011,-0.402,-0.4142,-0.4219,-0.4321,-0.438,-0.4395,-0.4481,-0.4478,-0.4536,-0.456,-0.4678,-0.4731,-0.468,-0.4881,-0.4852,-0.4865,-0.4842,-0.4853,-0.4861,-0.4847,-0.468,0,0,0,0,0,-0.3909,-0.3993,-0.4087,-0.4186,-0.4224,-0.4295,-0.4348,-0.4378,-0.4461,-0.4495,-0.4564,-0.4646,-0.4738,-0.4798,-0.4888,-0.5016,-0.5042,-0.507,-0.5078,-0.5084,-0.5096,-0.5171,-0.5185,-0.5032,-0.5032,-0.5031,0,0,-0.3935,-0.4006,-0.4056,-0.4186,-0.4249,-0.4337,-0.4323,-0.4415,-0.4482,-0.451,-0.4628,-0.4681,-0.4777,-0.4902,-0.4961,-0.495,-0.5143,-0.5093,-0.5097,-0.5106,-0.5179,-0.5194,-0.5207,-0.5036,-0.5036,-0.5035,0,0,-0.4026,-0.4087,-0.4177,-0.424,-0.4335,-0.4382,-0.4404,-0.4504,-0.454,-0.4658,-0.4681,-0.4763,-0.4919,-0.4988,-0.5043,-0.516,-0.5175,-0.5188,-0.5231,-0.5303,-0.5315,-0.5326,-0.5372,-0.5387,-0.5199,-0.5199,-0.5199,0,-0.4046,-0.4177,-0.4222,-0.4315,-0.4373,-0.4399,-0.4493,-0.4552,-0.4673,-0.4714,-0.4698,-0.4897,-0.4963,-0.5106,-0.5135,-0.5177,-0.5207,-0.5177,-0.5309,-0.5321,-0.5332,-0.5376,-0.5392,-0.52,-0.52,-0.52,-0.52,0,-0.4199,-0.4289,-0.4351,-0.4465,-0.4529,-0.4622,-0.4684,-0.4745,-0.4769,-0.4818,-0.4941,-0.502,-0.5128,-0.5164,-0.5189,-0.5312,-0.5302,-0.5297,-0.527,-0.5347,-0.5389,-0.5406,-0.5202,-0.5201,-0.5201,-0.5201,0,0,-0.429,-0.4427,-0.4449,-0.4502,-0.4609,-0.4682,-0.4776,-0.488,-0.4932,-0.5014,-0.5098,-0.523,-0.5226,-0.5289,-0.5322,-0.5385,-0.5477,-0.5373,-0.5376,-0.5393,-0.5621,-0.5627,-0.5645,-0.5486,-0.5489,-0.5492,-0.5614,0,-0.4396,-0.4564,-0.4608,-0.4752,-0.4838,-0.4864,-0.4947,-0.5023,-0.5072,-0.5154,-0.5209,-0.5303,-0.5289,-0.5327,-0.539,-0.5452,-0.5524,-0.5444,-0.5568,-0.5572,-0.5547,-0.5667,-0.5673,-0.5784,-0.5631,-0.5634,-0.5636,0,-0.4543,-0.4627,-0.4778,-0.4876,-0.4914,-0.4987,-0.5087,-0.5164,-0.5252,-0.5283,-0.5353,-0.538,-0.5483,-0.5448,-0.5593,-0.5537,-0.5591,-0.5629,-0.5635,-0.5651,-0.5611,-0.569,-0.5821,-0.5839,-0.5662,-0.566,-0.5658,0,-0.4598,-0.4749,-0.486,-0.4904,-0.5019,-0.5071,-0.5122,-0.5207,-0.5267,-0.5355,-0.5395,-0.5493,-0.5549,-0.5626,-0.568,-0.5649,-0.5822,-0.5791,-0.5854,-0.5853,-0.5892,-0.589,-0.6037,-0.592,-0.592,-0.592,-0.592,0,-0.4715,-0.4807,-0.4887,-0.4955,-0.5061,-0.5112,-0.5216,-0.5268,-0.5344,-0.5425,-0.5454,-0.553,-0.5596,-0.5682,-0.5725,-0.5841,-0.5865,-0.5896,-0.5907,-0.5895,-0.5892,-0.5934,-0.5929,-0.5924,-0.5923,-0.5923,-0.5922,0,-0.4796,-0.4852,-0.4975,-0.5074,-0.5101,-0.5175,-0.5261,-0.5331,-0.5379,-0.5482,-0.551,-0.5588,-0.5691,-0.5752,-0.5882,-0.5912,-0.6041,-0.6047,-0.6011,-0.6017,-0.6078,-0.6072,-0.626,-0.6289,-0.6149,-0.6151,-0.6152,0,-0.4868,-0.494,-0.5046,-0.5101,-0.5152,-0.5241,-0.5302,-0.5355,-0.5418,-0.5524,-0.5582,-0.5686,-0.5773,-0.5937,-0.6007,-0.6108,-0.6119,-0.6178,-0.6135,-0.6122,-0.6124,-0.6121,-0.613,-0.6186,-0.6187,-0.6188,-0.6189,0,-0.4991,-0.5015,-0.51,-0.5196,-0.5268,-0.5346,-0.5425,-0.5469,-0.5536,-0.5606,-0.571,-0.5777,-0.591,-0.6015,-0.6122,-0.6178,-0.6197,-0.6201,-0.6222,-0.6213,-0.6191,-0.6207,-0.6035,-0.6198,-0.6197,-0.6196,-0.6196,-0.6196,-0.5072,-0.5138,-0.5223,-0.5318,-0.5382,-0.5455,-0.5526,-0.5583,-0.567,-0.5782,-0.5808,-0.5919,-0.6007,-0.6152,-0.6211,-0.63,-0.6291,-0.632,-0.6328,-0.6336,-0.6339,-0.6173,-0.632,-0.6319,-0.6319,-0.6319,-0.6319,0,-0.5199,-0.5255,-0.5342,-0.545,-0.5526,-0.5532,-0.562,-0.5684,-0.578,-0.586,-0.5944,-0.6066,-0.6168,-0.6246,-0.6351,-0.6408,-0.642,-0.6435,-0.6433,-0.6446,-0.634,-0.6313,-0.6424,-0.6424,-0.6424,-0.6424,-0.6424,-0.6424,-0.5275,-0.5388,-0.5422,-0.5569,-0.5625,-0.5732,-0.5782,-0.5851,-0.5915,-0.6049,-0.6133,-0.6182,-0.6262,-0.6373,-0.6468,-0.6489,-0.6528,-0.6542,-0.6565,-0.6464,-0.6453,-0.6443,-0.6418,-0.6549,-0.6549,-0.6664,-0.6665,-0.6666]},{"header":{"parameterUnit":"m.s-1","parameterCategory":1,"la1":30.2991,"la2":30.254,"lo1":-89.0895,"lo2":-89.0444,"dy":0.0017,"dx":0.0017,"nx":28,"ny":28,"refTime":"2024-08-04T21:00:00:Z","depth":0,"parameterNumber":3,"parameterNumberName":"V-component_of_WINDS"},"data":[0,0,0,0,0,0,0,0,0,0,0,0,0,0,0,0,0,0,0,0,0,0,0,0,0,0,0,0,0,0,0,0,0,0,0,0,0,0,0,0,0,0,0,0,0,0,0,0,0,0,0,0,0,0,0,0,0,0,-3.3435,-3.3436,0,-3.3531,-3.3532,-3.3533,-3.3495,-3.3493,-3.3491,-3.3488,-3.359,-3.3594,-3.3599,0,0,0,0,0,0,0,0,0,0,0,0,0,-3.322,-3.3224,-3.3435,-3.3436,-3.3437,-3.3531,-3.3532,-3.3533,-3.3495,-3.3493,-3.349,-3.3487,-3.3588,-3.3594,-3.3599,0,0,0,0,0,0,0,0,0,0,0,0,0,-3.3315,-3.3226,-3.3435,-3.343,-3.343,-3.3531,-3.3532,-3.3534,-3.3496,-3.3493,-3.3489,-3.3486,-3.3586,-3.3593,-3.36,-3.3712,0,0,-3.3622,-3.3625,0,0,0,0,0,0,0,0,-3.3309,-3.3323,-3.3429,-3.343,-3.3431,-3.3497,-3.3493,-3.3594,-3.3497,-3.3471,-3.3488,-3.3484,-3.3562,-3.3571,-3.3596,-3.3717,-3.3721,-3.3623,-3.3627,-3.363,-3.3632,0,0,0,0,0,0,0,-3.3303,-3.3318,-3.3473,-3.3431,-3.3432,-3.3423,-3.3433,-3.3512,-3.3534,-3.3473,-3.347,-3.3482,-3.3562,-3.359,-3.3598,-3.3723,-3.3623,-3.3629,-3.3633,-3.3636,-3.394,-3.3944,0,0,0,0,0,0,-3.3296,-3.3313,-3.347,-3.3476,-3.336,-3.343,-3.344,-3.348,-3.3533,-3.3538,-3.3485,-3.348,-3.3579,-3.359,-3.3602,-3.3737,-3.363,-3.3637,-3.3641,-3.3936,-3.3941,-3.3945,0,0,0,0,0,0,-3.3291,-3.331,-3.3466,-3.3394,-3.3413,-3.3437,-3.3481,-3.3483,-3.3511,-3.3542,-3.3546,-3.3509,-3.3577,-3.3592,-3.3685,-3.374,-3.364,-3.3647,-3.3932,-3.3938,-3.3943,-3.4007,0,0,0,0,0,0,-3.3285,-3.3309,-3.3351,-3.3395,-3.3417,-3.3547,-3.3485,-3.3488,-3.3523,-3.3518,-3.3566,-3.3571,-3.3575,-3.3674,-3.3692,-3.3748,-3.3652,-3.3927,-3.3934,-3.3941,-3.4,-3.4014,-3.4026,0,0,0,0,0,-3.3278,-3.3366,-3.3354,-3.3373,-3.3471,-3.355,-3.3563,-3.3565,-3.3528,-3.3571,-3.3591,-3.357,-3.373,-3.3684,-3.3704,-3.3763,-3.3924,-3.3932,-3.3941,-3.3994,-3.4012,-3.4026,0,0,0,0,0,0,-3.333,-3.3372,-3.3359,-3.3464,-3.3504,-3.3544,-3.3598,-3.3583,-3.3635,-3.3628,-3.3629,-3.3641,-3.3737,-3.3759,-3.3706,-3.3874,-3.3822,-3.3834,-3.3856,-3.3872,-3.3885,-3.3878,-3.3658,0,0,0,0,0,-3.3353,-3.3414,-3.3448,-3.3537,-3.3558,-3.3575,-3.361,-3.3608,-3.3649,-3.3666,-3.3693,-3.3735,-3.3795,-3.3835,-3.3892,-3.4003,-3.4013,-3.4053,-3.4066,-3.4076,-3.4088,-3.4148,-3.4166,-3.3973,-3.3973,-3.3972,0,0,-3.3403,-3.3433,-3.3472,-3.3548,-3.3579,-3.3642,-3.3589,-3.3659,-3.3706,-3.3677,-3.3767,-3.3788,-3.3835,-3.3937,-3.3984,-3.3959,-3.4143,-3.4087,-3.4095,-3.4101,-3.4159,-3.4177,-3.4193,-3.3978,-3.3977,-3.3976,0,0,-3.3526,-3.3555,-3.3632,-3.3664,-3.371,-3.3721,-3.3739,-3.3782,-3.3794,-3.3884,-3.3863,-3.392,-3.4023,-3.4057,-3.4088,-3.4222,-3.4205,-3.4241,-3.4309,-3.4368,-3.4383,-3.4397,-3.4445,-3.4462,-3.4252,-3.4252,-3.4252,0,-3.3582,-3.3675,-3.3674,-3.3745,-3.3779,-3.3755,-3.3834,-3.3865,-3.3928,-3.3953,-3.3923,-3.4052,-3.4082,-3.4192,-3.4224,-3.425,-3.4272,-3.4236,-3.4381,-3.4395,-3.4407,-3.4453,-3.4471,-3.4256,-3.4256,-3.4255,-3.4255,0,-3.3742,-3.3807,-3.3864,-3.3925,-3.3966,-3.404,-3.4051,-3.4092,-3.4086,-3.41,-3.4191,-3.4226,-3.4289,-3.4315,-3.4311,-3.4425,-3.4408,-3.438,-3.4328,-3.443,-3.4473,-3.4491,-3.4262,-3.4261,-3.4259,-3.4258,0,0,-3.3902,-3.3959,-3.398,-3.4007,-3.4056,-3.4107,-3.418,-3.4241,-3.4277,-3.4321,-3.4383,-3.447,-3.4444,-3.4479,-3.4478,-3.453,-3.4634,-3.4496,-3.4497,-3.4521,-3.4762,-3.4783,-3.4804,-3.4622,-3.4626,-3.4628,-3.4758,0,-3.4028,-3.4156,-3.4156,-3.4275,-3.4335,-3.4312,-3.4376,-3.4413,-3.4428,-3.4481,-3.4497,-3.4559,-3.452,-3.4541,-3.4591,-3.4611,-3.4683,-3.4601,-3.4681,-3.4683,-3.467,-3.4826,-3.4849,-3.4971,-3.4775,-3.4778,-3.478,0,-3.4194,-3.4242,-3.4366,-3.4405,-3.443,-3.4488,-3.4543,-3.4595,-3.4637,-3.4643,-3.4682,-3.4673,-3.4748,-3.4693,-3.4796,-3.4741,-3.4773,-3.4788,-3.4792,-3.4801,-3.4739,-3.4839,-3.5009,-3.5028,-3.4807,-3.4805,-3.4803,0,-3.4298,-3.4394,-3.448,-3.4504,-3.4552,-3.4593,-3.4615,-3.4653,-3.469,-3.4738,-3.4762,-3.4819,-3.4851,-3.4895,-3.4902,-3.4861,-3.5006,-3.4952,-3.5015,-3.5015,-3.5047,-3.5045,-3.5225,-3.5067,-3.5067,-3.5066,-3.5066,0,-3.444,-3.4517,-3.4527,-3.4581,-3.4666,-3.4666,-3.475,-3.4769,-3.4803,-3.486,-3.4844,-3.4898,-3.4903,-3.4958,-3.4964,-3.5049,-3.5063,-3.5072,-3.5072,-3.5074,-3.5073,-3.5095,-3.5087,-3.5071,-3.507,-3.5069,-3.5068,0,-3.4571,-3.4582,-3.4674,-3.4712,-3.4723,-3.4784,-3.4816,-3.4868,-3.488,-3.4952,-3.4969,-3.4988,-3.5053,-3.5063,-3.514,-3.5143,-3.5245,-3.5237,-3.5231,-3.523,-3.5293,-3.5287,-3.5495,-3.5522,-3.5345,-3.5347,-3.5348,0,-3.4662,-3.472,-3.4763,-3.4799,-3.4823,-3.4882,-3.4919,-3.4921,-3.496,-3.5011,-3.5056,-3.5118,-3.5169,-3.5273,-3.5294,-3.5353,-3.5346,-3.5415,-3.5355,-3.5354,-3.5348,-3.5344,-3.535,-3.5427,-3.5428,-3.543,-3.5431,0,-3.4821,-3.4823,-3.4876,-3.493,-3.4974,-3.5018,-3.5059,-3.5089,-3.5097,-3.5141,-3.5206,-3.5245,-3.5322,-3.5385,-3.5442,-3.5465,-3.545,-3.545,-3.5467,-3.547,-3.5464,-3.5468,-3.5263,-3.5445,-3.5444,-3.5443,-3.5442,-3.5442,-3.4935,-3.4986,-3.5024,-3.5083,-3.5114,-3.5152,-3.5202,-3.5219,-3.5273,-3.5335,-3.5333,-3.5405,-3.5445,-3.552,-3.5547,-3.5604,-3.5582,-3.5607,-3.5614,-3.5621,-3.5627,-3.5454,-3.5614,-3.5614,-3.5613,-3.5613,-3.5613,0,-3.5094,-3.5117,-3.5171,-3.5228,-3.5275,-3.5255,-3.5299,-3.534,-3.5403,-3.544,-3.549,-3.5564,-3.5625,-3.565,-3.571,-3.575,-3.5744,-3.5765,-3.5763,-3.5769,-3.5643,-3.5622,-3.5769,-3.5769,-3.5769,-3.5769,-3.5769,-3.5769,-3.5182,-3.5266,-3.5273,-3.5372,-3.5395,-3.5464,-3.5491,-3.5526,-3.5556,-3.564,-3.569,-3.5705,-3.5739,-3.58,-3.5854,-3.586,-3.5883,-3.5908,-3.5911,-3.5793,-3.5778,-3.5763,-3.5743,-3.5913,-3.5913,-3.6032,-3.6033,-3.6034]}]]